sat.trackr.live / text

‹ back to catalog

STARLINK-11155 [DTC]

NORAD 60046 · 2024-112J

PAYLOAD ACTIVE UNKNOWN

§ Identity

Operator
Country
US
Launch date
2024-06-08
Launch site
AFWTR
Launch vehicle
Mass (kg)
RCS (m²)

Purposes: comms

External: N2YO · Heavens-Above · Gunter

§ Orbital elements

Epoch: 2026-05-24T18:44:02.316768Z

Period
91.74 min
Inclination
53.1595°
Eccentricity
0.0001107
Mean motion
15.69717333 rev/d
Perigee alt
359.0 km
Apogee alt
360.5 km
Semi-major
6,737.8 km
B*
2.2856e-5
RAAN
251.0431°
Arg perigee
101.2517°
Mean anomaly
258.8626°
Rev number
11,293

§ Raw data

STARLINK-11155 [DTC]1 60046U 24112J   26144.78058237  .00002182  00000+0  22856-4 0  99922 60046  53.1595 251.0431 0001107 101.2517 258.8626 15.69717333112936

JSON: /api/v1/satellites/60046 · /tle

For live sub-satellite position, see the globe view (requires WebGL).

§ Visibility from observer

Set your observer location to see the next 7 days of passes ≥ 10°. The values pass through the URL so the page stays shareable.

No JS? Fill the form by hand. The geolocation button needs JavaScript.